[TLELIST]

Mailing List Information:

  • This mailing list is a public mailing list - anyone may join or leave, at any time.

  • This mailing list is announce-only.

International Space Station (ISS) / Hubble Space Telescope (HST) / Chandra X-Ray Observatory Orbital Data via EMAIL

Privacy Policy:

Private list

Archives:

[TLELIST] Current TLEs

Sent July 20th 2019

HST 1 20580U 90037B 19200.90345424 +.00000320 +00000-0 +84960-5 0 9994 2 20580 028.4705 005.5496 0002853 099.8011 023.9881 15.09245854405528 ISS (ZARYA) 1 25544U 98067A 19201.44196882 .00000637 00000-0 18620-4 0 9992 2 25544 51.6423 196.2842 0006830 159.3781 357.4987 15.50990273180414 CXO 1 25867U 99040B 19203.60071014 +.00000557 +00000-0 +00000-0 0 9991 2 25867 067.2655 274.9060 7252361 233.2762 000.1264 00.37804583007806 ____________________________________________________________________ These 2-Line ...

[TLELIST] Current TLEs

Sent July 19th 2019

HST 1 20580U 90037B 19199.91721366 +.00000322 +00000-0 +86015-5 0 9990 2 20580 028.4705 012.0709 0002857 090.0998 064.5445 15.09245573405377 ISS (ZARYA) 1 25544U 98067A 19200.35517361 .00000714 00000-0 19935-4 0 9996 2 25544 51.6426 201.6711 0007002 156.4783 48.2019 15.50987987180245 CXO 1 25867U 99040B 19200.95717197 +.00000499 +00000-0 +00000-0 0 9990 2 25867 067.2855 274.9444 7249345 233.3417 000.2013 00.37806821007800 ____________________________________________________________________ These 2-Line ...

[TLELIST] Current TLEs

Sent July 18th 2019

HST 1 20580U 90037B 19199.08371528 .00000330 00000-0 90979-5 0 9992 2 20580 28.4705 17.5823 0002855 81.6502 215.3868 15.09245380405336 ISS (ZARYA) 1 25544U 98067A 19199.37774819 .00000408 00000-0 14766-4 0 9995 2 25544 51.6429 206.5215 0007000 152.8026 350.7584 15.50984402180099 CXO 1 25867U 99040B 19200.95717197 +.00000499 +00000-0 +00000-0 0 9990 2 25867 067.2855 274.9444 7249345 233.3417 000.2013 00.37806821007800 ____________________________________________________________________ These 2-Line ...

[TLELIST] Current TLEs

Sent July 17th 2019

HST 1 20580U 90037B 19198.01906250 .00000348 00000-0 10237-4 0 9997 2 20580 28.4705 24.6223 0002859 70.6876 190.3263 15.09245152405175 ISS (ZARYA) 1 25544U 98067A 19198.40422008 .00000150 00000-0 10398-4 0 9999 2 25544 51.6429 211.3536 0007069 148.7846 315.4440 15.50981496179949 CXO 1 25867U 99040B 19200.95634617 .00000499 00000-0 00000+0 0 9994 2 25867 67.2855 274.9444 7249344 233.3417 0.0886 0.37806792 18938 ____________________________________________________________________ These 2-Line ...

[TLELIST] Current TLEs

Sent July 16th 2019

HST 1 20580U 90037B 19196.94004197 +.00000342 +00000-0 +98538-5 0 9991 2 20580 028.4705 031.7571 0002832 059.8276 086.9456 15.09244750404923 ISS (ZARYA) 1 25544U 98067A 19197.37901192 -.00000151 00000-0 53147-5 0 9992 2 25544 51.6431 216.4394 0006962 145.0711 351.0890 15.50979565179783 CXO 1 25867U 99040B 19198.31279849 +.00000433 +00000-0 +00000-0 0 9991 2 25867 067.3152 274.9868 7246656 233.4125 000.1616 00.37803597007793 ____________________________________________________________________ These 2-Line ...

[TLELIST] Current TLEs

Sent July 15th 2019

HST 1 20580U 90037B 19195.87715403 +.00000339 +00000-0 +96534-5 0 9991 2 20580 028.4705 038.7853 0002801 049.0594 071.3008 15.09244324404763 ISS (ZARYA) 1 25544U 98067A 19196.40110101 .00000903 00000-0 23132-4 0 9991 2 25544 51.6433 221.2959 0006905 142.2289 290.1272 15.50980004179633 CXO 1 25867U 99040B 19198.31232818 .00000433 00000-0 00000+0 0 9995 2 25867 67.3151 274.9868 7246676 233.4126 0.0977 0.37803240 18926 ____________________________________________________________________ These 2-Line ...

[TLELIST] Current TLEs

Sent July 14th 2019

HST 1 20580U 90037B 19195.03956019 .00000354 00000-0 10597-4 0 9990 2 20580 28.4704 44.3238 0002781 40.4649 199.9956 15.09244091404721 ISS (ZARYA) 1 25544U 98067A 19195.38969907 .00000150 00000-0 10409-4 0 9990 2 25544 51.6428 226.3071 0007121 138.6922 42.7480 15.50975546179471 CXO 1 25867U 99040B 19195.66848777 .00000385 00000-0 00000+0 0 9993 2 25867 67.3444 275.0291 7244452 233.4911 0.1283 0.37801248 18911 ____________________________________________________________________ These 2-Line ...

[TLELIST] Current TLEs

Sent July 13th 2019

HST 1 20580U 90037B 19193.89177653 .00000381 00000-0 12240-4 0 9998 2 20580 28.4704 51.9134 0002742 28.5582 83.3165 15.09243829404546 ISS (ZARYA) 1 25544U 98067A 19194.48221852 -.00000064 00000-0 67902-5 0 9996 2 25544 51.6427 230.8100 0007198 135.2993 15.8627 15.50973761179334 CXO 1 25867U 99040B 19195.66848777 .00000385 00000-0 00000+0 0 9993 2 25867 67.3444 275.0291 7244452 233.4911 0.1283 0.37801248 18911 ____________________________________________________________________ These 2-Line ...

[TLELIST] Current TLEs

Sent July 12th 2019

HST 1 20580U 90037B 19191.83614741 .00000390 00000-0 12774-4 0 9996 2 20580 28.4702 65.5060 0002666 6.7790 74.1617 15.09243068404238 ISS (ZARYA) 1 25544U 98067A 19193.46002315 .00001023 00000-0 25159-4 0 9996 2 25544 51.6424 235.8799 0007201 132.7152 67.2419 15.50974002179175 CXO 1 25867U 99040B 19193.02351344 .00000403 00000-0 00000+0 0 9991 2 25867 67.3802 275.0887 7244077 233.5542 0.0203 0.37805344 18905 ____________________________________________________________________ These 2-Line ...

[TLELIST] Current TLEs

Sent July 11th 2019

HST 1 20580U 90037B 19190.91850640 +.00000344 +00000-0 +99889-5 0 9996 2 20580 028.4702 071.5739 0002642 356.7283 128.5355 15.09242425404012 ISS (ZARYA) 1 25544U 98067A 19191.64362958 .00000242 00000-0 11957-4 0 9999 2 25544 51.6430 244.8938 0007211 126.3371 5.0810 15.50966263178893 CXO 1 25867U 99040B 19193.02351344 .00000403 00000-0 00000+0 0 9991 2 25867 67.3802 275.0887 7244077 233.5542 0.0203 0.37805344 18905 ____________________________________________________________________ These 2-Line ...

< < Previous

Index

 

this list's archives:

(archive rss , atom rss/atom )

Administration